星链-4169 (STARLINK-4169 )

导读

STARLINK-4169是美国太空探索技术公司Starlink星链互联网卫星星座的一员,由美国于2022年7月24日发射升空,归属星链分组,运行在近地轨道,主要服务于全球范围的低延迟宽带互联网覆盖项目,延续星链星座补网组网的布局,服务军民场景的卫星互联网需求。

Basic Information
目录编号:
53280
目录名称:
STARLINK-4169
国际标识:
2022-086AQ
轨道中心:
EARTH
卫星名称:
星链-4169
卫星全名:
星链-4169 (STARLINK-4169 )
卫星状态:
在轨 (已飞行1424 天)
发射日期:
2022-07-24 UTC
国别 :
美国 (US)
星等 :
--
Orbit Information
数据来源 国际轨道数据 AOE轨道数据
星历时间 2026-06-17T07:16:37+0800
16小时前
查看轨道信息
2026-06-11T01:00:00+0800
6天前
查看轨道信息
半长轴 6917.906km 6917.901km
偏心率 0.0001368 0.0001456
轨道倾角 53.160° 53.160°
近地点辐角 87.687° 92.777°
升交点赤经 53.013° 81.161°
平近点角 272.428° 77.267°
近地点 538.822km 538.756km
远地点 540.716km 540.772km
周期 95.438分钟 95.438分钟
每日圈数 15.088318 15.088333
Detailed Information
固有亮度:
5
最大亮度:
2.5
卫星平台:
Starlink v1.5
覆盖范围:
全球
运营商:
太空探索技术公司
运营商所在国:
美国
制造商(研发单位):
太空探索技术公司
制造商所在国:
美国
使用方式:
暂无
Satellite Introduction
星链(Starlink)计划是由太空探索技术公司(SpaceX)提出的一个巨型低轨卫星互联网星座项目,计划在2019年至2024年间在太空搭建由约1.2万颗卫星组成的“星链”网络,其中1584颗将部署在地球上空550千米处的近地轨道,并从2020年开始工作。该卫星仍在工作。
2D Orbit Map
3D Orbit Map
Orbit Altitude Analysis Chart
Orbit Inclination Analysis Chart
Orbit Comprehensive Analysis Chart
View Comprehensive Chart